Time,TemperatureF,DewpointF,PressureIn,WindDirection,WindDirectionDegrees,WindSpeedMPH,WindSpeedGustMPH,Humidity,HourlyPrecipIn,Conditions,Clouds,dailyrainin,SoftwareType,DateUTC
2013-05-30 00:01:00,70.1,66.0,29.97,SW,214,0.0,0.0,87,0.00,,,0.00,Wunderground v.1.15,2013-05-30 04:01:00,
2013-05-30 00:02:00,70.0,66.0,29.97,SW,214,0.0,0.0,87,0.00,,,0.00,Wunderground v.1.15,2013-05-30 04:02:00,
2013-05-30 00:03:00,70.0,66.0,29.97,SW,214,0.0,0.0,87,0.00,,,0.00,Wunderground v.1.15,2013-05-30 04:03:00,
2013-05-30 00:04:00,69.9,65.9,29.97,SW,214,0.0,0.0,87,0.00,,,0.00,Wunderground v.1.15,2013-05-30 04:04:00,
2013-05-30 00:08:00,69.9,66.2,29.97,SW,214,0.0,0.0,88,0.00,,,0.00,Wunderground v.1.15,2013-05-30 04:08:00,
2013-05-30 00:13:00,69.7,66.0,29.97,SW,214,0.0,1.0,88,0.00,,,0.00,Wunderground v.1.15,2013-05-30 04:13:00,
2013-05-30 00:19:00,69.7,66.0,29.97,SW,214,0.0,1.0,88,0.00,,,0.00,Wunderground v.1.15,2013-05-30 04:19:00,
2013-05-30 00:25:00,69.8,66.1,29.97,SSW,213,1.0,4.0,88,0.00,,,0.00,Wunderground v.1.15,2013-05-30 04:25:00,
2013-05-30 00:31:00,69.8,65.8,29.97,SSW,213,1.0,1.0,87,0.00,,,0.00,Wunderground v.1.15,2013-05-30 04:31:00,
2013-05-30 00:36:00,69.9,65.9,29.97,SSW,213,0.0,1.0,87,0.00,,,0.00,Wunderground v.1.15,2013-05-30 04:36:00,
2013-05-30 00:42:00,70.0,65.6,29.97,SSW,211,1.0,7.0,86,0.00,,,0.00,Wunderground v.1.15,2013-05-30 04:42:00,
2013-05-30 00:47:00,70.1,65.7,29.98,SSW,211,1.0,7.0,86,0.00,,,0.00,Wunderground v.1.15,2013-05-30 04:47:00,
2013-05-30 00:53:00,70.3,65.6,29.98,SSW,210,0.0,3.0,85,0.00,,,0.00,Wunderground v.1.15,2013-05-30 04:53:00,
2013-05-30 00:59:00,70.4,65.7,29.98,SSW,210,1.0,3.0,85,0.00,,,0.00,Wunderground v.1.15,2013-05-30 04:59:00,
2013-05-30 01:04:00,70.6,65.5,29.98,SSW,210,1.0,3.0,84,0.00,,,0.00,Wunderground v.1.15,2013-05-30 05:04:00,
2013-05-30 01:10:00,70.5,65.4,29.98,SSW,211,0.0,0.0,84,0.00,,,0.00,Wunderground v.1.15,2013-05-30 05:10:00,
2013-05-30 01:15:00,70.4,65.3,29.99,SSW,211,0.0,1.0,84,0.00,,,0.00,Wunderground v.1.15,2013-05-30 05:15:00,
2013-05-30 01:21:00,70.2,65.1,29.99,SSW,211,0.0,0.0,84,0.00,,,0.00,Wunderground v.1.15,2013-05-30 05:21:00,
2013-05-30 01:26:00,70.2,65.5,29.99,SSW,211,0.0,0.0,85,0.00,,,0.00,Wunderground v.1.15,2013-05-30 05:26:00,
2013-05-30 01:32:00,70.0,65.3,29.99,SSW,211,0.0,0.0,85,0.00,,,0.00,Wunderground v.1.15,2013-05-30 05:32:00,
2013-05-30 01:38:00,69.9,65.2,29.99,SSW,211,0.0,0.0,85,0.00,,,0.00,Wunderground v.1.15,2013-05-30 05:38:00,
2013-05-30 01:44:00,69.8,65.1,29.99,SSW,210,0.0,1.0,85,0.00,,,0.00,Wunderground v.1.15,2013-05-30 05:44:00,
2013-05-30 01:49:00,69.7,65.0,29.99,SSW,211,0.0,0.0,85,0.00,,,0.00,Wunderground v.1.15,2013-05-30 05:49:00,
2013-05-30 01:55:00,69.7,65.0,29.99,SSW,211,0.0,0.0,85,0.00,,,0.00,Wunderground v.1.15,2013-05-30 05:55:00,
2013-05-30 02:01:00,69.6,64.9,30.00,SSW,210,0.0,0.0,85,0.00,,,0.00,Wunderground v.1.15,2013-05-30 06:01:00,
2013-05-30 02:06:00,69.5,64.5,30.00,SSW,211,0.0,0.0,84,0.00,,,0.00,Wunderground v.1.15,2013-05-30 06:06:00,
2013-05-30 02:12:00,69.4,64.4,29.99,SSW,211,0.0,0.0,84,0.00,,,0.00,Wunderground v.1.15,2013-05-30 06:12:00,
2013-05-30 02:17:00,69.2,64.5,30.00,SSW,210,0.0,0.0,85,0.00,,,0.00,Wunderground v.1.15,2013-05-30 06:17:00,
2013-05-30 02:23:00,69.0,64.3,30.00,SSW,210,0.0,1.0,85,0.00,,,0.00,Wunderground v.1.15,2013-05-30 06:23:00,
2013-05-30 02:29:00,68.8,64.1,30.00,SSW,211,0.0,1.0,85,0.00,,,0.00,Wunderground v.1.15,2013-05-30 06:29:00,
2013-05-30 02:34:00,68.6,63.9,30.00,SSW,211,0.0,0.0,85,0.00,,,0.00,Wunderground v.1.15,2013-05-30 06:34:00,
2013-05-30 02:40:00,68.3,63.6,30.00,SSW,211,0.0,0.0,85,0.00,,,0.00,Wunderground v.1.15,2013-05-30 06:40:00,
2013-05-30 02:45:00,68.1,63.4,30.00,SSW,210,0.0,0.0,85,0.00,,,0.00,Wunderground v.1.15,2013-05-30 06:45:00,
2013-05-30 02:50:00,67.9,63.6,30.00,SSW,211,0.0,0.0,86,0.00,,,0.00,Wunderground v.1.15,2013-05-30 06:50:00,
2013-05-30 02:56:00,67.7,63.4,30.00,SSW,211,0.0,0.0,86,0.00,,,0.00,Wunderground v.1.15,2013-05-30 06:56:00,
2013-05-30 03:01:00,67.6,63.3,30.00,SSW,211,0.0,0.0,86,0.00,,,0.00,Wunderground v.1.15,2013-05-30 07:01:00,
2013-05-30 03:06:00,67.5,63.2,30.00,SSW,210,0.0,0.0,86,0.00,,,0.00,Wunderground v.1.15,2013-05-30 07:06:00,
2013-05-30 03:12:00,67.4,63.1,30.00,SSW,211,0.0,0.0,86,0.00,,,0.00,Wunderground v.1.15,2013-05-30 07:12:00,
2013-05-30 03:17:00,67.3,63.0,30.00,SSW,211,0.0,0.0,86,0.00,,,0.00,Wunderground v.1.15,2013-05-30 07:17:00,
2013-05-30 03:23:00,67.1,63.1,30.00,SSW,211,0.0,0.0,87,0.00,,,0.00,Wunderground v.1.15,2013-05-30 07:23:00,
2013-05-30 03:28:00,67.1,63.1,30.00,SSW,211,0.0,0.0,87,0.00,,,0.00,Wunderground v.1.15,2013-05-30 07:28:00,
2013-05-30 03:35:00,67.0,62.7,30.00,SSW,210,0.0,0.0,86,0.00,,,0.00,Wunderground v.1.15,2013-05-30 07:35:00,
2013-05-30 03:40:00,67.1,63.1,30.00,SSW,211,0.0,0.0,87,0.00,,,0.00,Wunderground v.1.15,2013-05-30 07:40:00,
2013-05-30 03:46:00,67.1,62.8,30.00,SSW,211,0.0,3.0,86,0.00,,,0.00,Wunderground v.1.15,2013-05-30 07:46:00,
2013-05-30 03:52:00,67.2,62.9,30.00,SSW,211,0.0,0.0,86,0.00,,,0.00,Wunderground v.1.15,2013-05-30 07:52:00,
2013-05-30 03:57:00,67.3,63.0,30.00,SSW,211,0.0,1.0,86,0.00,,,0.00,Wunderground v.1.15,2013-05-30 07:57:00,
2013-05-30 04:03:00,67.3,63.0,30.00,SSW,210,0.0,0.0,86,0.00,,,0.00,Wunderground v.1.15,2013-05-30 08:03:00,
2013-05-30 04:09:00,67.2,62.5,30.00,SSW,211,0.0,0.0,85,0.00,,,0.00,Wunderground v.1.15,2013-05-30 08:09:00,
2013-05-30 04:14:00,67.2,62.5,30.00,SSW,211,0.0,0.0,85,0.00,,,0.00,Wunderground v.1.15,2013-05-30 08:14:00,
2013-05-30 04:20:00,67.1,62.8,30.00,SSW,211,0.0,0.0,86,0.00,,,0.00,Wunderground v.1.15,2013-05-30 08:20:00,
2013-05-30 04:25:00,67.1,62.8,30.00,SSW,210,1.0,4.0,86,0.00,,,0.00,Wunderground v.1.15,2013-05-30 08:25:00,
2013-05-30 04:31:00,67.2,62.5,30.00,SSW,207,1.0,1.0,85,0.00,,,0.00,Wunderground v.1.15,2013-05-30 08:31:00,
2013-05-30 04:36:00,67.3,62.6,30.00,SSW,206,1.0,1.0,85,0.00,,,0.00,Wunderground v.1.15,2013-05-30 08:36:00,
2013-05-30 04:42:00,67.2,62.5,30.00,SSW,206,0.0,0.0,85,0.00,,,0.00,Wunderground v.1.15,2013-05-30 08:42:00,
2013-05-30 04:47:00,67.2,62.5,30.00,SSW,206,0.0,1.0,85,0.00,,,0.00,Wunderground v.1.15,2013-05-30 08:47:00,
2013-05-30 04:52:00,67.1,62.4,30.00,SSW,207,0.0,1.0,85,0.00,,,0.00,Wunderground v.1.15,2013-05-30 08:52:00,
2013-05-30 04:58:00,67.2,62.5,30.00,SSW,207,0.0,4.0,85,0.00,,,0.00,Wunderground v.1.15,2013-05-30 08:58:00,
2013-05-30 05:03:00,67.2,62.2,30.00,SSW,208,1.0,1.0,84,0.00,,,0.00,Wunderground v.1.15,2013-05-30 09:03:00,
2013-05-30 05:09:00,67.4,62.4,30.00,SSW,207,1.0,4.0,84,0.00,,,0.00,Wunderground v.1.15,2013-05-30 09:09:00,
2013-05-30 05:14:00,67.4,62.4,30.00,SSW,207,0.0,1.0,84,0.00,,,0.00,Wunderground v.1.15,2013-05-30 09:14:00,
2013-05-30 05:20:00,67.4,62.4,30.00,SSW,208,0.0,0.0,84,0.00,,,0.00,Wunderground v.1.15,2013-05-30 09:20:00,
2013-05-30 05:25:00,67.3,62.3,30.00,SSW,207,0.0,0.0,84,0.00,,,0.00,Wunderground v.1.15,2013-05-30 09:25:00,
2013-05-30 05:30:00,67.4,62.4,30.00,SSW,207,0.0,0.0,84,0.00,,,0.00,Wunderground v.1.15,2013-05-30 09:30:00,
2013-05-30 05:36:00,67.5,62.5,30.00,SSW,206,1.0,4.0,84,0.00,,,0.00,Wunderground v.1.15,2013-05-30 09:36:00,
2013-05-30 05:41:00,67.5,62.5,30.01,SSW,206,1.0,2.0,84,0.00,,,0.00,Wunderground v.1.15,2013-05-30 09:41:00,
2013-05-30 05:46:00,67.5,62.5,30.01,SSW,206,1.0,3.0,84,0.00,,,0.00,Wunderground v.1.15,2013-05-30 09:46:00,
2013-05-30 05:52:00,67.4,62.4,30.01,SSW,206,0.0,4.0,84,0.00,,,0.00,Wunderground v.1.15,2013-05-30 09:52:00,
2013-05-30 05:57:00,67.5,62.5,30.01,SSW,206,0.0,5.0,84,0.00,,,0.00,Wunderground v.1.15,2013-05-30 09:57:00,
2013-05-30 06:03:00,67.6,62.3,30.01,SSW,206,1.0,2.0,83,0.00,,,0.00,Wunderground v.1.15,2013-05-30 10:03:00,
2013-05-30 06:09:00,67.7,62.3,30.01,SW,217,1.0,6.0,83,0.00,,,0.00,Wunderground v.1.15,2013-05-30 10:09:00,
2013-05-30 06:14:00,67.8,62.4,30.01,SW,217,1.0,1.0,83,0.00,,,0.00,Wunderground v.1.15,2013-05-30 10:14:00,
2013-05-30 06:20:00,67.9,62.5,30.01,SW,217,1.0,1.0,83,0.00,,,0.00,Wunderground v.1.15,2013-05-30 10:20:00,
2013-05-30 06:25:00,68.0,62.6,30.01,SW,216,1.0,2.0,83,0.00,,,0.00,Wunderground v.1.15,2013-05-30 10:25:00,
2013-05-30 06:30:00,68.0,62.6,30.01,SSW,213,0.0,0.0,83,0.00,,,0.00,Wunderground v.1.15,2013-05-30 10:30:00,
2013-05-30 06:35:00,68.0,62.6,30.01,SW,214,1.0,1.0,83,0.00,,,0.00,Wunderground v.1.15,2013-05-30 10:35:00,
2013-05-30 06:41:00,68.1,62.7,30.01,SSW,213,1.0,4.0,83,0.00,,,0.00,Wunderground v.1.15,2013-05-30 10:41:00,
2013-05-30 06:46:00,68.3,62.9,30.02,SSW,213,1.0,4.0,83,0.00,,,0.00,Wunderground v.1.15,2013-05-30 10:46:00,
2013-05-30 06:52:00,68.5,63.1,30.02,SSW,208,1.0,4.0,83,0.00,,,0.00,Wunderground v.1.15,2013-05-30 10:52:00,
2013-05-30 06:57:00,68.7,63.0,30.02,SSW,208,1.0,4.0,82,0.00,,,0.00,Wunderground v.1.15,2013-05-30 10:57:00,
2013-05-30 07:03:00,68.9,63.2,30.02,SW,219,1.0,1.0,82,0.00,,,0.00,Wunderground v.1.15,2013-05-30 11:03:00,
2013-05-30 07:08:00,69.1,63.4,30.03,SSW,208,1.0,3.0,82,0.00,,,0.00,Wunderground v.1.15,2013-05-30 11:08:00,
2013-05-30 07:13:00,69.2,63.5,30.03,SSW,208,1.0,2.0,82,0.00,,,0.00,Wunderground v.1.15,2013-05-30 11:13:00,
2013-05-30 07:19:00,69.3,63.6,30.02,SSW,208,0.0,3.0,82,0.00,,,0.00,Wunderground v.1.15,2013-05-30 11:19:00,
2013-05-30 07:24:00,69.4,63.7,30.02,SSW,208,0.0,2.0,82,0.00,,,0.00,Wunderground v.1.15,2013-05-30 11:24:00,
2013-05-30 07:30:00,69.4,63.7,30.02,SSW,208,0.0,0.0,82,0.00,,,0.00,Wunderground v.1.15,2013-05-30 11:30:00,
2013-05-30 07:35:00,69.4,63.7,30.02,SSW,207,0.0,0.0,82,0.00,,,0.00,Wunderground v.1.15,2013-05-30 11:35:00,
2013-05-30 07:41:00,69.4,63.7,30.03,SSW,208,0.0,0.0,82,0.00,,,0.00,Wunderground v.1.15,2013-05-30 11:41:00,
2013-05-30 07:46:00,69.6,63.9,30.03,SSW,207,0.0,0.0,82,0.00,,,0.00,Wunderground v.1.15,2013-05-30 11:46:00,
2013-05-30 07:52:00,69.9,64.5,30.03,SSW,209,0.0,4.0,83,0.00,,,0.00,Wunderground v.1.15,2013-05-30 11:52:00,
2013-05-30 07:57:00,70.3,64.5,30.03,SSW,208,1.0,4.0,82,0.00,,,0.00,Wunderground v.1.15,2013-05-30 11:57:00,
2013-05-30 08:03:00,70.7,64.9,30.04,SSW,209,0.0,0.0,82,0.00,,,0.00,Wunderground v.1.15,2013-05-30 12:03:00,
2013-05-30 08:09:00,71.2,65.1,30.03,SSW,205,1.0,3.0,81,0.00,,,0.00,Wunderground v.1.15,2013-05-30 12:09:00,
2013-05-30 08:15:00,71.3,64.8,30.03,SSW,205,1.0,6.0,80,0.00,,,0.00,Wunderground v.1.15,2013-05-30 12:15:00,
2013-05-30 08:21:00,71.6,65.1,30.03,SSW,205,2.0,5.0,80,0.00,,,0.00,Wunderground v.1.15,2013-05-30 12:21:00,
2013-05-30 08:26:00,71.7,65.6,30.04,SSW,205,1.0,5.0,81,0.00,,,0.00,Wunderground v.1.15,2013-05-30 12:26:00,
2013-05-30 08:32:00,71.8,65.3,30.03,SSW,200,1.0,1.0,80,0.00,,,0.00,Wunderground v.1.15,2013-05-30 12:32:00,
2013-05-30 08:38:00,72.0,65.5,30.03,SSW,201,1.0,3.0,80,0.00,,,0.00,Wunderground v.1.15,2013-05-30 12:38:00,
2013-05-30 08:43:00,72.4,65.9,30.03,SSW,202,1.0,1.0,80,0.00,,,0.00,Wunderground v.1.15,2013-05-30 12:43:00,
2013-05-30 08:49:00,72.8,66.3,30.03,SSW,203,1.0,2.0,80,0.00,,,0.00,Wunderground v.1.15,2013-05-30 12:49:00,
2013-05-30 08:54:00,73.4,66.1,30.03,SSW,195,1.0,5.0,78,0.00,,,0.00,Wunderground v.1.15,2013-05-30 12:54:00,
2013-05-30 09:00:00,74.0,66.7,30.03,SSW,206,1.0,1.0,78,0.00,,,0.00,Wunderground v.1.15,2013-05-30 13:00:00,
2013-05-30 09:05:00,74.7,67.4,30.03,SSW,203,1.0,2.0,78,0.00,,,0.00,Wunderground v.1.15,2013-05-30 13:05:00,
2013-05-30 09:11:00,75.2,67.5,30.03,SSW,209,1.0,3.0,77,0.00,,,0.00,Wunderground v.1.15,2013-05-30 13:11:00,
2013-05-30 09:16:00,75.8,68.1,30.03,SSW,203,2.0,9.0,77,0.00,,,0.00,Wunderground v.1.15,2013-05-30 13:16:00,
2013-05-30 09:22:00,76.5,68.0,30.03,SSW,210,1.0,4.0,75,0.00,,,0.00,Wunderground v.1.15,2013-05-30 13:22:00,
2013-05-30 09:27:00,76.9,67.6,30.03,SSW,200,1.0,4.0,73,0.00,,,0.00,Wunderground v.1.15,2013-05-30 13:27:00,
2013-05-30 09:33:00,77.3,68.0,30.03,SW,232,1.0,3.0,73,0.00,,,0.00,Wunderground v.1.15,2013-05-30 13:33:00,
2013-05-30 09:38:00,77.6,68.3,30.03,WSW,257,1.0,3.0,73,0.00,,,0.00,Wunderground v.1.15,2013-05-30 13:38:00,
2013-05-30 09:44:00,77.7,68.7,30.03,West,262,1.0,2.0,74,0.00,,,0.00,Wunderground v.1.15,2013-05-30 13:44:00,
2013-05-30 09:49:00,78.0,67.8,30.03,SW,214,1.0,1.0,71,0.00,,,0.00,Wunderground v.1.15,2013-05-30 13:49:00,
2013-05-30 09:54:00,78.3,68.9,30.03,SSW,213,1.0,2.0,73,0.00,,,0.00,Wunderground v.1.15,2013-05-30 13:54:00,
2013-05-30 10:00:00,78.6,68.4,30.03,West,271,1.0,3.0,71,0.00,,,0.00,Wunderground v.1.15,2013-05-30 14:00:00,
2013-05-30 10:05:00,78.8,68.6,30.03,SW,220,1.0,3.0,71,0.00,,,0.00,Wunderground v.1.15,2013-05-30 14:05:00,
2013-05-30 10:11:00,79.2,68.1,30.03,SW,215,2.0,2.0,69,0.00,,,0.00,Wunderground v.1.15,2013-05-30 14:11:00,
2013-05-30 10:16:00,79.3,69.1,30.03,WSW,240,2.0,6.0,71,0.00,,,0.00,Wunderground v.1.15,2013-05-30 14:16:00,
2013-05-30 10:22:00,79.8,68.7,30.02,SSW,206,2.0,2.0,69,0.00,,,0.00,Wunderground v.1.15,2013-05-30 14:22:00,
2013-05-30 10:27:00,80.0,68.1,30.02,SSW,211,3.0,8.0,67,0.00,,,0.00,Wunderground v.1.15,2013-05-30 14:27:00,
2013-05-30 10:33:00,80.4,68.9,30.02,South,187,2.0,3.0,68,0.00,,,0.00,Wunderground v.1.15,2013-05-30 14:33:00,
2013-05-30 10:38:00,80.6,69.1,30.02,SSW,208,2.0,6.0,68,0.00,,,0.00,Wunderground v.1.15,2013-05-30 14:38:00,
2013-05-30 10:43:00,80.6,69.1,30.02,SSW,192,2.0,2.0,68,0.00,,,0.00,Wunderground v.1.15,2013-05-30 14:43:00,
2013-05-30 10:49:00,80.7,69.2,30.02,SSW,201,2.0,2.0,68,0.00,,,0.00,Wunderground v.1.15,2013-05-30 14:49:00,
2013-05-30 10:54:00,80.8,69.7,30.02,SW,214,2.0,6.0,69,0.00,,,0.00,Wunderground v.1.15,2013-05-30 14:54:00,
2013-05-30 11:00:00,81.1,69.5,30.02,SW,227,1.0,3.0,68,0.00,,,0.00,Wunderground v.1.15,2013-05-30 15:00:00,
2013-05-30 11:05:00,81.2,70.1,30.01,SW,218,1.0,3.0,69,0.00,,,0.00,Wunderground v.1.15,2013-05-30 15:05:00,
2013-05-30 11:11:00,81.4,69.8,30.02,West,263,1.0,1.0,68,0.00,,,0.00,Wunderground v.1.15,2013-05-30 15:11:00,
2013-05-30 11:16:00,81.7,69.2,30.02,South,179,2.0,8.0,66,0.00,,,0.00,Wunderground v.1.15,2013-05-30 15:16:00,
2013-05-30 11:22:00,82.0,70.4,30.01,SW,214,2.0,2.0,68,0.00,,,0.00,Wunderground v.1.15,2013-05-30 15:22:00,
2013-05-30 11:27:00,82.1,69.6,30.01,West,277,1.0,6.0,66,0.00,,,0.00,Wunderground v.1.15,2013-05-30 15:27:00,
2013-05-30 11:33:00,82.1,70.1,30.01,West,277,3.0,10.0,67,0.00,,,0.00,Wunderground v.1.15,2013-05-30 15:33:00,
2013-05-30 11:39:00,82.4,70.3,30.01,WNW,289,2.0,10.0,67,0.00,,,0.00,Wunderground v.1.15,2013-05-30 15:39:00,
2013-05-30 11:44:00,82.7,70.2,30.01,WSW,242,2.0,4.0,66,0.00,,,0.00,Wunderground v.1.15,2013-05-30 15:44:00,
2013-05-30 11:49:00,82.9,70.4,30.02,West,272,2.0,2.0,66,0.00,,,0.00,Wunderground v.1.15,2013-05-30 15:49:00,
2013-05-30 11:55:00,82.6,69.6,30.02,WSW,257,1.0,4.0,65,0.00,,,0.00,Wunderground v.1.15,2013-05-30 15:55:00,
2013-05-30 12:01:00,82.2,69.7,30.02,SSW,192,1.0,1.0,66,0.00,,,0.00,Wunderground v.1.15,2013-05-30 16:01:00,
2013-05-30 12:06:00,82.4,70.8,30.01,SSW,202,1.0,5.0,68,0.00,,,0.00,Wunderground v.1.15,2013-05-30 16:06:00,
2013-05-30 12:11:00,82.5,70.0,30.01,WSW,246,2.0,6.0,66,0.00,,,0.00,Wunderground v.1.15,2013-05-30 16:11:00,
2013-05-30 12:17:00,82.8,69.8,30.01,SW,226,3.0,6.0,65,0.00,,,0.00,Wunderground v.1.15,2013-05-30 16:17:00,
2013-05-30 12:23:00,83.3,70.8,30.01,SSW,199,4.0,5.0,66,0.00,,,0.00,Wunderground v.1.15,2013-05-30 16:23:00,
2013-05-30 12:29:00,83.6,70.6,30.01,SSW,200,3.0,9.0,65,0.00,,,0.00,Wunderground v.1.15,2013-05-30 16:29:00,
2013-05-30 12:34:00,83.7,71.6,30.01,SW,218,4.0,10.0,67,0.00,,,0.00,Wunderground v.1.15,2013-05-30 16:34:00,
2013-05-30 12:40:00,83.5,70.0,30.01,SSW,209,4.0,5.0,64,0.00,,,0.00,Wunderground v.1.15,2013-05-30 16:40:00,
2013-05-30 12:45:00,83.5,71.4,30.01,SW,232,3.0,5.0,67,0.00,,,0.00,Wunderground v.1.15,2013-05-30 16:45:00,
2013-05-30 12:50:00,83.5,70.5,30.01,South,190,1.0,1.0,65,0.00,,,0.00,Wunderground v.1.15,2013-05-30 16:50:00,
2013-05-30 12:56:00,82.9,70.4,30.01,WSW,255,1.0,2.0,66,0.00,,,0.00,Wunderground v.1.15,2013-05-30 16:56:00,
2013-05-30 13:01:00,82.2,69.7,30.01,SW,227,1.0,1.0,66,0.00,,,0.00,Wunderground v.1.15,2013-05-30 17:01:00,
2013-05-30 13:06:00,81.5,71.2,30.00,SW,228,1.0,1.0,71,0.00,,,0.01,Wunderground v.1.15,2013-05-30 17:06:00,
2013-05-30 13:13:00,80.8,70.9,30.00,WSW,253,0.0,3.0,72,0.00,,,0.01,Wunderground v.1.15,2013-05-30 17:13:00,
2013-05-30 13:18:00,80.9,71.0,30.00,WSW,253,0.0,3.0,72,0.00,,,0.01,Wunderground v.1.15,2013-05-30 17:18:00,
2013-05-30 13:23:00,81.1,71.6,29.99,WSW,253,0.0,0.0,73,0.00,,,0.01,Wunderground v.1.15,2013-05-30 17:23:00,
2013-05-30 13:30:00,81.6,72.1,30.00,SW,222,0.0,0.0,73,0.00,,,0.01,Wunderground v.1.15,2013-05-30 17:30:00,
2013-05-30 13:35:00,82.2,71.0,29.99,West,271,1.0,6.0,69,0.00,,,0.01,Wunderground v.1.15,2013-05-30 17:35:00,
2013-05-30 13:41:00,82.3,70.7,29.98,WNW,283,1.0,1.0,68,0.00,,,0.01,Wunderground v.1.15,2013-05-30 17:41:00,
2013-05-30 13:46:00,82.3,70.2,29.99,West,268,1.0,1.0,67,0.00,,,0.01,Wunderground v.1.15,2013-05-30 17:46:00,
2013-05-30 13:51:00,82.0,70.8,30.00,SSW,195,1.0,3.0,69,0.00,,,0.01,Wunderground v.1.15,2013-05-30 17:51:00,
2013-05-30 13:56:00,78.7,70.1,30.02,South,180,4.0,16.0,75,6.78,,,0.29,Wunderground v.1.15,2013-05-30 17:56:00,
2013-05-30 14:03:00,75.8,69.9,30.00,SSW,209,4.0,5.0,82,0.11,,,0.31,Wunderground v.1.15,2013-05-30 18:03:00,
2013-05-30 14:08:00,74.6,70.1,30.00,SSW,206,0.0,5.0,86,0.05,,,0.31,Wunderground v.1.15,2013-05-30 18:08:00,
2013-05-30 14:13:00,74.0,70.2,30.00,SSW,206,0.0,0.0,88,0.04,,,0.31,Wunderground v.1.15,2013-05-30 18:13:00,
2013-05-30 14:19:00,73.7,70.6,30.00,SSW,206,0.0,0.0,90,0.00,,,0.31,Wunderground v.1.15,2013-05-30 18:19:00,
2013-05-30 14:24:00,73.8,71.0,29.99,SSW,206,0.0,0.0,91,0.00,,,0.31,Wunderground v.1.15,2013-05-30 18:24:00,
2013-05-30 14:30:00,73.8,70.7,29.99,SSW,206,0.0,0.0,90,0.00,,,0.31,Wunderground v.1.15,2013-05-30 18:30:00,
2013-05-30 14:35:00,73.8,70.0,29.99,SSW,205,0.0,2.0,88,0.00,,,0.31,Wunderground v.1.15,2013-05-30 18:35:00,
2013-05-30 14:41:00,73.9,70.5,29.98,SSW,205,1.0,1.0,89,0.00,,,0.31,Wunderground v.1.15,2013-05-30 18:41:00,
2013-05-30 14:46:00,74.2,70.7,29.98,SSW,200,1.0,3.0,89,0.00,,,0.31,Wunderground v.1.15,2013-05-30 18:46:00,
2013-05-30 14:51:00,74.7,70.9,29.98,SSW,211,1.0,3.0,88,0.00,,,0.31,Wunderground v.1.15,2013-05-30 18:51:00,
2013-05-30 14:56:00,75.2,71.7,29.98,SSW,205,2.0,4.0,89,0.00,,,0.31,Wunderground v.1.15,2013-05-30 18:56:00,
2013-05-30 15:02:00,75.9,72.1,29.98,SSW,203,1.0,2.0,88,0.00,,,0.31,Wunderground v.1.15,2013-05-30 19:02:00,
2013-05-30 15:08:00,76.6,72.4,29.98,SSW,208,2.0,4.0,87,0.00,,,0.31,Wunderground v.1.15,2013-05-30 19:08:00,
2013-05-30 15:13:00,77.3,72.1,29.98,SW,215,3.0,7.0,84,0.00,,,0.31,Wunderground v.1.15,2013-05-30 19:13:00,
2013-05-30 15:19:00,78.3,72.7,29.98,SSW,213,4.0,7.0,83,0.00,,,0.32,Wunderground v.1.15,2013-05-30 19:19:00,
2013-05-30 15:24:00,79.2,72.9,29.98,SSW,206,5.0,10.0,81,0.00,,,0.32,Wunderground v.1.15,2013-05-30 19:24:00,
2013-05-30 15:29:00,79.8,73.1,29.98,SSW,211,5.0,9.0,80,0.00,,,0.32,Wunderground v.1.15,2013-05-30 19:29:00,
2013-05-30 15:34:00,80.4,72.9,29.97,SW,224,5.0,9.0,78,0.00,,,0.32,Wunderground v.1.15,2013-05-30 19:34:00,
2013-05-30 15:40:00,81.2,72.9,29.97,SSW,211,5.0,5.0,76,0.00,,,0.32,Wunderground v.1.15,2013-05-30 19:40:00,
2013-05-30 15:46:00,81.8,73.5,29.97,SSW,205,5.0,11.0,76,0.00,,,0.32,Wunderground v.1.15,2013-05-30 19:46:00,
2013-05-30 15:51:00,82.3,73.2,29.96,SW,232,5.0,6.0,74,0.00,,,0.32,Wunderground v.1.15,2013-05-30 19:51:00,
2013-05-30 15:57:00,82.8,74.1,29.97,South,179,4.0,6.0,75,0.00,,,0.32,Wunderground v.1.15,2013-05-30 19:57:00,
2013-05-30 16:02:00,83.2,73.2,29.97,SSW,198,5.0,10.0,72,0.00,,,0.32,Wunderground v.1.15,2013-05-30 20:02:00,
2013-05-30 16:08:00,83.6,73.6,29.97,SSW,206,5.0,10.0,72,0.00,,,0.32,Wunderground v.1.15,2013-05-30 20:08:00,
2013-05-30 16:14:00,84.0,74.0,29.97,SSW,194,4.0,5.0,72,0.00,,,0.32,Wunderground v.1.15,2013-05-30 20:14:00,
2013-05-30 16:20:00,84.3,72.6,29.96,South,187,4.0,7.0,68,0.00,,,0.32,Wunderground v.1.15,2013-05-30 20:20:00,
2013-05-30 16:25:00,84.3,74.3,29.95,SSW,207,4.0,7.0,72,0.00,,,0.32,Wunderground v.1.15,2013-05-30 20:25:00,
2013-05-30 16:31:00,84.7,74.3,29.95,SSW,206,3.0,6.0,71,0.00,,,0.32,Wunderground v.1.15,2013-05-30 20:31:00,
2013-05-30 16:36:00,85.1,74.6,29.96,SSW,202,3.0,11.0,71,0.00,,,0.32,Wunderground v.1.15,2013-05-30 20:36:00,
2013-05-30 16:42:00,84.4,72.2,29.96,South,175,5.0,13.0,67,0.00,,,0.32,Wunderground v.1.15,2013-05-30 20:42:00,
2013-05-30 16:48:00,83.0,71.8,29.96,SSW,199,5.0,13.0,69,0.00,,,0.32,Wunderground v.1.15,2013-05-30 20:48:00,
2013-05-30 16:53:00,82.0,70.8,29.95,SW,217,5.0,12.0,69,0.00,,,0.32,Wunderground v.1.15,2013-05-30 20:53:00,
2013-05-30 16:59:00,81.1,71.2,29.96,South,184,4.0,12.0,72,0.00,,,0.32,Wunderground v.1.15,2013-05-30 20:59:00,
2013-05-30 17:04:00,80.5,71.0,29.95,SSW,206,3.0,8.0,73,0.00,,,0.32,Wunderground v.1.15,2013-05-30 21:04:00,
2013-05-30 17:10:00,80.0,71.8,29.95,SW,223,2.0,3.0,76,0.00,,,0.32,Wunderground v.1.15,2013-05-30 21:10:00,
2013-05-30 17:16:00,79.3,71.8,29.95,SW,223,1.0,3.0,78,0.00,,,0.33,Wunderground v.1.15,2013-05-30 21:16:00,
2013-05-30 17:21:00,78.7,72.0,29.95,SW,222,0.0,0.0,80,0.00,,,0.33,Wunderground v.1.15,2013-05-30 21:21:00,
2013-05-30 17:26:00,78.3,72.0,29.94,SW,223,0.0,0.0,81,0.00,,,0.33,Wunderground v.1.15,2013-05-30 21:26:00,
2013-05-30 17:33:00,78.0,72.1,29.94,SW,222,0.0,0.0,82,0.00,,,0.33,Wunderground v.1.15,2013-05-30 21:33:00,
2013-05-30 17:38:00,78.3,72.3,29.94,SW,219,1.0,3.0,82,0.00,,,0.33,Wunderground v.1.15,2013-05-30 21:38:00,
2013-05-30 17:43:00,79.1,72.4,29.94,SW,219,1.0,4.0,80,0.00,,,0.33,Wunderground v.1.15,2013-05-30 21:43:00,
2013-05-30 17:49:00,80.3,72.4,29.94,SSW,211,2.0,2.0,77,0.00,,,0.33,Wunderground v.1.15,2013-05-30 21:49:00,
2013-05-30 17:54:00,81.3,72.2,29.94,South,179,3.0,5.0,74,0.00,,,0.33,Wunderground v.1.15,2013-05-30 21:54:00,
2013-05-30 18:00:00,82.4,72.9,29.94,South,180,2.0,2.0,73,0.00,,,0.33,Wunderground v.1.15,2013-05-30 22:00:00,
2013-05-30 18:06:00,83.2,72.4,29.95,SW,214,2.0,4.0,70,0.00,,,0.33,Wunderground v.1.15,2013-05-30 22:06:00,
2013-05-30 18:11:00,83.8,72.5,29.95,South,171,3.0,4.0,69,0.00,,,0.33,Wunderground v.1.15,2013-05-30 22:11:00,
2013-05-30 18:16:00,84.3,73.0,29.94,SW,217,3.0,6.0,69,0.00,,,0.33,Wunderground v.1.15,2013-05-30 22:16:00,
2013-05-30 18:23:00,84.7,72.5,29.94,SW,215,3.0,5.0,67,0.00,,,0.33,Wunderground v.1.15,2013-05-30 22:23:00,
2013-05-30 18:28:00,84.9,73.2,29.94,SE,131,3.0,10.0,68,0.00,,,0.33,Wunderground v.1.15,2013-05-30 22:28:00,
2013-05-30 18:33:00,84.7,71.2,29.94,SSW,213,4.0,6.0,64,0.00,,,0.33,Wunderground v.1.15,2013-05-30 22:33:00,
2013-05-30 18:39:00,84.0,70.5,29.94,South,177,4.0,5.0,64,0.00,,,0.33,Wunderground v.1.15,2013-05-30 22:39:00,
2013-05-30 18:44:00,83.2,70.2,29.94,South,173,3.0,5.0,65,0.00,,,0.33,Wunderground v.1.15,2013-05-30 22:44:00,
2013-05-30 18:50:00,82.3,69.8,29.95,SW,223,2.0,4.0,66,0.00,,,0.33,Wunderground v.1.15,2013-05-30 22:50:00,
2013-05-30 18:55:00,81.7,69.7,29.95,South,182,2.0,4.0,67,0.00,,,0.33,Wunderground v.1.15,2013-05-30 22:55:00,
2013-05-30 19:00:00,81.5,69.9,29.95,ESE,111,1.0,3.0,68,0.00,,,0.33,Wunderground v.1.15,2013-05-30 23:00:00,
2013-05-30 19:06:00,81.3,69.7,29.95,SE,133,3.0,8.0,68,0.00,,,0.33,Wunderground v.1.15,2013-05-30 23:06:00,
2013-05-30 19:12:00,81.3,69.7,29.94,South,182,4.0,5.0,68,0.00,,,0.33,Wunderground v.1.15,2013-05-30 23:12:00,
2013-05-30 19:18:00,81.3,70.2,29.95,South,178,3.0,5.0,69,0.00,,,0.33,Wunderground v.1.15,2013-05-30 23:18:00,
2013-05-30 19:23:00,81.4,70.2,29.94,South,173,2.0,5.0,69,0.00,,,0.33,Wunderground v.1.15,2013-05-30 23:23:00,
2013-05-30 19:29:00,81.4,70.2,29.95,South,171,3.0,3.0,69,0.00,,,0.33,Wunderground v.1.15,2013-05-30 23:29:00,
2013-05-30 19:34:00,81.5,70.3,29.95,SSW,212,2.0,4.0,69,0.00,,,0.33,Wunderground v.1.15,2013-05-30 23:34:00,
2013-05-30 19:40:00,81.3,70.2,29.94,South,188,2.0,4.0,69,0.00,,,0.33,Wunderground v.1.15,2013-05-30 23:40:00,
2013-05-30 19:45:00,80.8,70.1,29.95,South,180,2.0,4.0,70,0.00,,,0.33,Wunderground v.1.15,2013-05-30 23:45:00,
2013-05-30 19:50:00,80.1,69.8,29.95,SSE,153,2.0,6.0,71,0.00,,,0.33,Wunderground v.1.15,2013-05-30 23:50:00,
2013-05-30 19:55:00,79.5,69.7,29.95,SSE,157,3.0,6.0,72,0.00,,,0.33,Wunderground v.1.15,2013-05-30 23:55:00,
2013-05-30 20:01:00,78.7,69.3,29.95,SW,217,4.0,7.0,73,0.00,,,0.33,Wunderground v.1.15,2013-05-31 00:01:00,
2013-05-30 20:06:00,78.4,69.4,29.95,SE,125,5.0,9.0,74,0.00,,,0.33,Wunderground v.1.15,2013-05-31 00:06:00,
2013-05-30 20:12:00,78.2,68.4,29.95,South,172,6.0,6.0,72,0.00,,,0.33,Wunderground v.1.15,2013-05-31 00:12:00,
2013-05-30 20:18:00,77.7,68.4,29.95,SW,217,5.0,12.0,73,0.00,,,0.34,Wunderground v.1.15,2013-05-31 00:18:00,
2013-05-30 20:24:00,76.4,68.7,29.96,SW,217,3.0,5.0,77,0.10,,,0.35,Wunderground v.1.15,2013-05-31 00:24:00,
2013-05-30 20:29:00,75.5,68.5,29.96,SW,217,1.0,1.0,79,0.06,,,0.36,Wunderground v.1.15,2013-05-31 00:29:00,
2013-05-30 20:34:00,74.8,68.6,29.96,SW,217,0.0,1.0,81,0.06,,,0.36,Wunderground v.1.15,2013-05-31 00:34:00,
2013-05-30 20:39:00,74.1,68.3,29.96,SW,217,0.0,0.0,82,0.05,,,0.36,Wunderground v.1.15,2013-05-31 00:39:00,
2013-05-30 20:44:00,73.5,68.4,29.96,SW,217,0.0,0.0,84,0.04,,,0.36,Wunderground v.1.15,2013-05-31 00:44:00,
2013-05-30 20:49:00,73.0,68.2,29.95,SSW,192,0.0,0.0,85,0.00,,,0.36,Wunderground v.1.15,2013-05-31 00:49:00,
2013-05-30 20:54:00,72.4,67.6,29.95,SSE,160,1.0,4.0,85,0.00,,,0.36,Wunderground v.1.15,2013-05-31 00:54:00,
2013-05-30 21:00:00,72.0,67.2,29.96,SSE,161,1.0,1.0,85,0.00,,,0.36,Wunderground v.1.15,2013-05-31 01:00:00,
2013-05-30 21:05:00,71.7,67.6,29.96,SSE,161,0.0,1.0,87,0.00,,,0.36,Wunderground v.1.15,2013-05-31 01:05:00,
2013-05-30 21:11:00,71.5,67.4,29.96,SSE,161,0.0,0.0,87,0.00,,,0.36,Wunderground v.1.15,2013-05-31 01:11:00,
2013-05-30 21:16:00,71.4,67.7,29.96,SSE,161,0.0,0.0,88,0.00,,,0.36,Wunderground v.1.15,2013-05-31 01:16:00,
2013-05-30 21:22:00,71.3,67.9,29.97,SSE,161,0.0,0.0,89,0.00,,,0.36,Wunderground v.1.15,2013-05-31 01:22:00,
2013-05-30 21:28:00,71.3,68.2,29.97,SSE,161,0.0,0.0,90,0.00,,,0.36,Wunderground v.1.15,2013-05-31 01:28:00,
2013-05-30 21:33:00,71.3,68.2,29.97,SSE,161,0.0,0.0,90,0.00,,,0.36,Wunderground v.1.15,2013-05-31 01:33:00,
2013-05-30 21:39:00,71.3,68.2,29.97,SSE,161,0.0,1.0,90,0.00,,,0.36,Wunderground v.1.15,2013-05-31 01:39:00,
2013-05-30 21:44:00,71.3,68.5,29.97,SSE,159,0.0,0.0,91,0.00,,,0.36,Wunderground v.1.15,2013-05-31 01:44:00,
2013-05-30 21:49:00,71.3,68.5,29.97,SSE,159,0.0,0.0,91,0.00,,,0.36,Wunderground v.1.15,2013-05-31 01:49:00,
2013-05-30 21:54:00,71.3,68.5,29.97,SSE,160,0.0,0.0,91,0.00,,,0.36,Wunderground v.1.15,2013-05-31 01:54:00,
2013-05-30 22:00:00,71.3,68.5,29.97,South,172,0.0,0.0,91,0.00,,,0.36,Wunderground v.1.15,2013-05-31 02:00:00,
2013-05-30 22:05:00,71.3,68.5,29.96,South,172,0.0,0.0,91,0.00,,,0.36,Wunderground v.1.15,2013-05-31 02:05:00,
2013-05-30 22:11:00,71.3,68.9,29.96,South,171,0.0,0.0,92,0.00,,,0.36,Wunderground v.1.15,2013-05-31 02:11:00,
2013-05-30 22:16:00,71.3,68.9,29.96,South,171,0.0,0.0,92,0.00,,,0.36,Wunderground v.1.15,2013-05-31 02:16:00,
2013-05-30 22:22:00,71.2,68.8,29.96,South,169,0.0,2.0,92,0.00,,,0.36,Wunderground v.1.15,2013-05-31 02:22:00,
2013-05-30 22:28:00,71.1,68.7,29.96,South,169,0.0,2.0,92,0.00,,,0.36,Wunderground v.1.15,2013-05-31 02:28:00,
2013-05-30 22:33:00,71.1,68.3,29.96,South,177,1.0,3.0,91,0.00,,,0.36,Wunderground v.1.15,2013-05-31 02:33:00,
2013-05-30 22:38:00,71.1,68.3,29.96,South,175,1.0,4.0,91,0.00,,,0.36,Wunderground v.1.15,2013-05-31 02:38:00,
2013-05-30 22:43:00,71.2,68.1,29.96,SSE,158,2.0,8.0,90,0.00,,,0.36,Wunderground v.1.15,2013-05-31 02:43:00,
2013-05-30 22:48:00,71.2,68.1,29.97,South,187,2.0,8.0,90,0.00,,,0.36,Wunderground v.1.15,2013-05-31 02:48:00,
2013-05-30 22:53:00,71.3,67.9,29.97,SSW,198,2.0,6.0,89,0.00,,,0.36,Wunderground v.1.15,2013-05-31 02:53:00,
2013-05-30 22:59:00,71.3,67.9,29.97,SSW,207,2.0,2.0,89,0.00,,,0.36,Wunderground v.1.15,2013-05-31 02:59:00,
2013-05-30 23:05:00,71.6,67.9,29.97,South,184,4.0,8.0,88,0.00,,,0.36,Wunderground v.1.15,2013-05-31 03:05:00,
2013-05-30 23:11:00,71.9,67.8,29.97,SSW,205,4.0,5.0,87,0.00,,,0.36,Wunderground v.1.15,2013-05-31 03:11:00,
2013-05-30 23:16:00,72.2,67.8,29.98,SSW,200,4.0,10.0,86,0.00,,,0.36,Wunderground v.1.15,2013-05-31 03:16:00,
2013-05-30 23:23:00,72.5,67.7,29.98,SSW,193,5.0,6.0,85,0.00,,,0.36,Wunderground v.1.15,2013-05-31 03:23:00,
2013-05-30 23:29:00,72.7,67.9,29.98,SSW,198,5.0,6.0,85,0.00,,,0.36,Wunderground v.1.15,2013-05-31 03:29:00,
2013-05-30 23:33:00,72.7,67.9,29.98,SSE,165,5.0,11.0,85,0.00,,,0.36,Wunderground v.1.15,2013-05-31 03:33:00,
2013-05-30 23:39:00,72.6,67.8,29.97,SSW,209,5.0,6.0,85,0.00,,,0.36,Wunderground v.1.15,2013-05-31 03:39:00,
2013-05-30 23:44:00,72.4,68.0,29.98,South,190,5.0,9.0,86,0.00,,,0.36,Wunderground v.1.15,2013-05-31 03:44:00,
2013-05-30 23:50:00,72.2,67.8,29.97,SSW,204,3.0,4.0,86,0.00,,,0.36,Wunderground v.1.15,2013-05-31 03:50:00,
2013-05-30 23:55:00,72.1,67.7,29.97,SW,219,2.0,5.0,86,0.00,,,0.36,Wunderground v.1.15,2013-05-31 03:55:00,